7 * 24
多渠道服务支持
STARLINK-36271(NORAD编号68703)是SpaceX星链(Starlink)低轨互联网星座中的一颗卫星,该项目由SpaceX在2015年启动,目标部署超4.2万颗卫星,打造覆盖全球的高速天基互联网系统。星链卫星集中运行在300-550公里近地轨道,STARLINK-36271作为组网卫星,采用Ku/Ka频段,支持卫星通信互联,可为偏远地区、海洋、航空等传统网络覆盖空白场景提供高速互联网接入,助力星链实现全球无缝网络覆盖的建设目标。
美国
(US)
| 数据来源 | 国际轨道数据 |
| 星历时间: | 2026-09-11T09:07:14+0800 16小时前 查看轨道信息 |
| 半长轴: | 6840.833km |
| 偏心率: | 0.0001216 |
| 轨道倾角: | 53.158° |
| 近地点辐角 | 96.969° |
| 升交点赤经 | 250.162° |
| 平近点角 | 263.145° |
| 近地点: | 461.864km |
| 远地点: | 463.528km |
| 周期: | 93.848分钟 |
| 每日圈数: | 15.344027 |